229P/Gibbs (2025)

Japanese version
Home page
Updated on August 10, 2025

---------------------------------------------------------------------

* Profile

* Pictures

* Orbital Elements

Epoch 2025 May 5.0 TT = JDT 2460800.5
T 2025 Mar. 5.78430 TT                                  Pike
q   2.4403752            (2000.0)            P               Q
n   0.12683730     Peri.  224.21735     +0.89976244     -0.40372848
a   3.9231784      Node   157.88229     +0.40677032     +0.91337843
e   0.3779597      Incl.   26.09676     -0.15800461     +0.05237512
P   7.77
From 326 observations 2001 Aug. 23-2024 Dec. 3, mean residual 1".0.

* Magnitudes Graph

        m1 = 11.0 + 5 log d + 15.0 log r(t - 100)

---------------------------------------------------------------------

The orbital elements are published on M.P.E.C. 2025-O159.
The magnitudes graphs are made with Comet for Windows.

---------------------------------------------------------------------

Copyright(C) Seiichi Yoshida (comet@aerith.net). All rights reserved.